STARLINK-5610, 57244

Orbit data source: Space-Track

STARLINK-5610, 57244 is a payload satellite owned by SpaceX/Seattle (US) in LEO that was launched on Fri, 07 Jul 2023 UTC via an FALCON 9 launch vehicle from the Air Force Western Test Range (AFWTR). Payload-class satellites include a variety of spacecraft equipped with specific instruments for various scientific and technological missions. These include communications satellites like Starlink; space stations such as the ISS; scientific satellites like the Hubble; Earth observation satellites from companies like Planet Labs, Umbra, and HawkEye 360; GPS; miniature CubeSats for education and research; and military/defense satellites.

Loading next visibility...
Identifier
57244, 2023-094AC
Orbit
LEO
Country
Flag of USUS
Related business
Manufacturer
SpaceX/Seattle
Mission
Operational Commercial Communications
Bus & Motor
STARLINK, Unknown motor
Mass
305 kg wet, ~290 kg dry
Launch date (UTC)
2023-07-07 (3 years ago)
Launch vehicle
FALCON 9
Launch site
Air Force Western Test Range (AFWTR)
Object type
Payload
Rocket body
Debris
Shape & HBR
Box + 1 Pan, 10.1 m
Radar Cross Section
11.087 m², Large (>1 m²)

Expand to show TLE details & history
Last TLE update: 9 hours ago

TLE from 9 hours ago
0 STARLINK-5610
1 57244U 23094AC  26167.73674368 -.00000471  00000-0 -76005-5 0  9993
2 57244  43.0010 180.0408 0000992 280.3441  79.7299 15.27576431162390
Epoch: 2026-06-16T17:40Z
TLE epoch observation values (Epoch: 2026-06-16T17:40:54.653Z)
Latitude
-0.00003°
Longitude
9.80856°
Altitude
482.714 km
Speed
7.626 km/s
True Right ascension
12h 00m 09s
True Declination
0° 00' 00"
Sunlit
Object was in daylight at epoch
Visualization orbit readout
Latitude
Unknown
Longitude
Unknown
Altitude
Unknown
Speed
Unknown
Apparent Right ascension
Unknown
Apparent Declination
Unknown
Sunlit
N/A
Visualization observer readout
Local Sidereal Time
13:23:22
Azimuth
Unknown
Elevation
Unknown
Doppler factor
Unknown
Orbital elements
Apogee altitude
485.686 km
Perigee altitude
484.324 km
Semi-major axis
6,863.142 km
Eccentricity
0.0001
Inclination
43.001°
RAAN
180.0408°
Arg. of periapsis
280.3441°
True anomaly
79.74109°
Mean anomaly
79.7299°
Eccentric anomaly
79.73549°
Mean motion
3.81732 °/min
Orbital period
94.31 mins
BSTAR
-0.0000076005
Loading maneuver chart data...
Computing Atmospheric mass density...
Loading historical data...
Loading historical data...
Loading historical data...
Loading historical data...
Loading historical data...
Loading historical data...
Loading historical data...

Documentation

Showing up to 5 results
|